Weather History for O'Neill, NE

Change the Weather History Date:

Tuesday, January 14, 2014

  Actual Average Record
Temperature  
Mean Temperature 34 °F -  
Max Temperature 45 °F 32 °F 64 °F (2006)
Min Temperature 21 °F 10 °F -19 °F (1972)
Degree Days  
Heating Degree Days 31    
Moisture  
Dew Point 11 °F    
Average Humidity 45    
Maximum Humidity 69    
Minimum Humidity 20    
Precipitation  
Precipitation 0.00 in - - ()
Sea Level Pressure  
Sea Level Pressure 30.08 in    
Wind  
Wind Speed 27 mph (NW)    
Max Wind Speed 40 mph    
Max Gust Speed 53 mph    
Visibility 10 miles    
Events      
Averages and records for this station are not official NWS values.
T = Trace of Precipitation, MM = Missing Value Source: NWS Daily Summary

Daily Weather History Graph

Daily Weather History Graph

Search for Another Location

Airport:

Trip Planner

Search our weather history database for the weather conditions in past years. The results will help you decide how hot, cold, wet, or windy it might be!

Date:

Astronomy

Jan. 14, 2014 Rise Set
Actual Time 8:02 AM CST 5:26 PM CST
Civil Twilight 7:30 AM CST 5:57 PM CST
Nautical Twilight 6:56 AM CST 6:32 PM CST
Astronomical Twilight 6:22 AM CST 7:05 PM CST
Moon 4:33 PM CST (1/14) 6:37 AM CST (1/14)
Length of Visible Light 10h 26m
Length of Day
9h 23m
Waxing Gibbous, 98% of the Moon is Illuminated
Jan 14
Waxing Gibbous
Jan 15
Full
Jan 23
Last Quarter
Jan 30
New
Feb 6
First Quarter

Hourly Weather History & Observations

Time (CST) Temp. Windchill Dew Point Humidity Pressure Visibility Wind Dir Wind Speed Gust Speed Precip Events Conditions
12:15 AM 45.5 °F 34.6 °F 30.7 °F 56% 29.69 in 10.0 mi NW 40.3 mph 52.9 mph N/A   Mostly Cloudy
12:35 AM 43.7 °F 32.7 °F 30.4 °F 59% 29.72 in 10.0 mi NW 35.7 mph 51.8 mph N/A   Overcast
12:55 AM 42.1 °F 31.0 °F 29.3 °F 61% 29.73 in 10.0 mi NW 32.2 mph 44.9 mph N/A   Overcast
1:15 AM 40.1 °F 29.7 °F 29.5 °F 66% 29.74 in 10.0 mi NW 24.2 mph 40.3 mph N/A   Scattered Clouds
1:35 AM 39.6 °F 27.7 °F 30.0 °F 69% 29.77 in 10.0 mi NW 31.1 mph 42.6 mph N/A   Mostly Cloudy
1:55 AM 39.2 °F 27.8 °F 29.3 °F 68% 29.80 in 10.0 mi NW 27.6 mph 39.1 mph N/A   Overcast
2:15 AM 37.4 °F 25.0 °F 27.5 °F 67% 29.82 in 10.0 mi NW 29.9 mph 41.4 mph N/A   Mostly Cloudy
2:35 AM 36.9 °F 25.6 °F 27.0 °F 67% 29.84 in 10.0 mi NW 23.0 mph 38.0 mph N/A   Mostly Cloudy
2:55 AM 36.5 °F 24.9 °F 26.2 °F 66% 29.86 in 10.0 mi NW 24.2 mph 35.7 mph N/A   Scattered Clouds
3:15 AM 35.8 °F 23.4 °F 26.6 °F 69% 29.88 in 10.0 mi NW 26.5 mph 38.0 mph N/A   Scattered Clouds
3:35 AM 35.6 °F 24.0 °F 25.7 °F 67% 29.89 in 10.0 mi NW 23.0 mph 34.5 mph N/A   Scattered Clouds
3:55 AM 35.1 °F 22.0 °F 23.2 °F 62% 29.90 in 10.0 mi NW 28.8 mph 38.0 mph N/A   Scattered Clouds
4:15 AM 33.8 °F 21.6 °F 22.8 °F 64% 29.90 in 10.0 mi NW 23.0 mph 32.2 mph N/A   Clear
4:35 AM 33.1 °F 20.9 °F 21.9 °F 64% 29.92 in 10.0 mi NW 21.9 mph 33.4 mph N/A   Clear
4:55 AM 32.0 °F 19.5 °F 21.0 °F 64% 29.94 in 10.0 mi NW 21.9 mph 29.9 mph N/A   Clear
5:15 AM 32.0 °F 17.9 °F 19.6 °F 60% 29.95 in 10.0 mi NW 28.8 mph 35.7 mph N/A   Clear
5:35 AM 31.5 °F 19.4 °F 19.0 °F 60% 29.97 in 10.0 mi NW 19.6 mph 33.4 mph N/A   Clear
5:55 AM 31.5 °F 19.1 °F 20.1 °F 63% 29.97 in 10.0 mi NW 20.7 mph 27.6 mph N/A   Clear
6:15 AM 31.6 °F 17.6 °F 18.1 °F 57% 29.99 in 10.0 mi NW 27.6 mph 32.2 mph N/A   Clear
6:35 AM 31.1 °F 18.6 °F 17.2 °F 57% 30.00 in 10.0 mi NW 20.7 mph 29.9 mph N/A   Clear
6:55 AM 30.9 °F 17.2 °F 15.8 °F 54% 30.01 in 10.0 mi NW 25.3 mph 35.7 mph N/A   Clear
7:15 AM 30.0 °F 16.9 °F 15.8 °F 56% 30.02 in 10.0 mi NW 21.9 mph 28.8 mph N/A   Clear
7:35 AM 30.0 °F 16.0 °F 14.7 °F 53% 30.04 in 10.0 mi NW 25.3 mph 29.9 mph N/A   Clear
7:55 AM 29.8 °F 16.0 °F 12.7 °F 49% 30.04 in 10.0 mi NW 24.2 mph 33.4 mph N/A   Clear
8:15 AM 29.3 °F 16.6 °F 11.3 °F 47% 30.05 in 10.0 mi NW 19.6 mph 32.2 mph N/A   Clear
8:35 AM 29.8 °F 16.3 °F 10.8 °F 45% 30.07 in 10.0 mi NW 23.0 mph 29.9 mph N/A   Clear
8:55 AM 30.2 °F 16.2 °F 10.4 °F 44% 30.08 in 10.0 mi NW 25.3 mph 31.1 mph N/A   Clear
9:15 AM 31.1 °F 17.7 °F 10.4 °F 42% 30.10 in 10.0 mi NW 24.2 mph 32.2 mph N/A   Clear
9:35 AM 31.6 °F 17.9 °F 10.0 °F 41% 30.11 in 10.0 mi NW 26.5 mph 35.7 mph N/A   Clear
9:55 AM 32.0 °F 18.1 °F 9.7 °F 39% 30.12 in 10.0 mi NW 27.6 mph 36.8 mph N/A   Clear
10:15 AM 32.2 °F 17.2 °F 7.7 °F 36% 30.13 in 10.0 mi NW 33.4 mph 40.3 mph N/A   Clear
10:35 AM 32.4 °F 17.5 °F 5.5 °F 32% 30.14 in 10.0 mi NW 33.4 mph 41.4 mph N/A   Clear
10:55 AM 32.9 °F 18.4 °F 6.8 °F 33% 30.14 in 10.0 mi NW 32.2 mph 42.6 mph N/A   Clear
11:15 AM 32.9 °F 19.3 °F 4.8 °F 31% 30.14 in 10.0 mi NW 27.6 mph 43.7 mph N/A   Clear
11:35 AM 33.1 °F 19.3 °F 4.5 °F 30% 30.14 in 10.0 mi NW 28.8 mph 42.6 mph N/A   Clear
11:55 AM 33.1 °F 18.4 °F 1.9 °F 27% 30.15 in 10.0 mi NW 33.4 mph 42.6 mph N/A   Clear
12:15 PM 33.3 °F 19.3 °F 1.9 °F 27% 30.15 in 10.0 mi NW 29.9 mph 40.3 mph N/A   Clear
12:35 PM 33.3 °F 19.1 °F 2.1 °F 27% 30.14 in 10.0 mi NW 31.1 mph 40.3 mph N/A   Clear
12:55 PM 33.8 °F 19.6 °F 2.5 °F 27% 30.15 in 10.0 mi NNW 32.2 mph 39.1 mph N/A   Clear
1:15 PM 34.0 °F 20.5 °F 2.8 °F 27% 30.15 in 10.0 mi NNW 28.8 mph 38.0 mph N/A   Clear
1:35 PM 34.7 °F 22.8 °F 3.0 °F 26% 30.15 in 10.0 mi NW 23.0 mph 34.5 mph N/A   Clear
1:55 PM 34.5 °F 22.3 °F 2.3 °F 26% 30.15 in 10.0 mi NNW 24.2 mph 38.0 mph N/A   Clear
2:15 PM 35.1 °F 23.0 °F 2.3 °F 25% 30.15 in 10.0 mi NNW 24.2 mph 33.4 mph N/A   Clear
2:35 PM 34.9 °F 21.8 °F -2.7 °F 20% 30.16 in 10.0 mi NW 28.8 mph 38.0 mph N/A   Clear
2:55 PM 34.5 °F 21.3 °F -2.0 °F 21% 30.17 in 10.0 mi NNW 28.8 mph 40.3 mph N/A   Clear
3:15 PM 34.2 °F 19.9 °F -3.6 °F 20% 30.17 in 10.0 mi NW 33.4 mph 42.6 mph N/A   Clear
3:35 PM 33.8 °F 21.0 °F -2.6 °F 21% 30.17 in 10.0 mi NW 25.3 mph 36.8 mph N/A   Clear
3:55 PM 33.1 °F 19.3 °F -0.6 °F 24% 30.18 in 10.0 mi NW 28.8 mph 38.0 mph N/A   Clear
4:15 PM 32.4 °F 18.1 °F 1.0 °F 26% 30.19 in 10.0 mi NW 29.9 mph 40.3 mph N/A   Scattered Clouds
4:35 PM 32.4 °F 17.9 °F 3.2 °F 29% 30.20 in 10.0 mi NW 31.1 mph 36.8 mph N/A   Mostly Cloudy
4:55 PM 31.6 °F 17.1 °F 2.7 °F 29% 30.21 in 10.0 mi NW 29.9 mph 43.7 mph N/A   Mostly Cloudy
5:15 PM 31.1 °F 18.0 °F 3.2 °F 31% 30.21 in 10.0 mi NW 23.0 mph 36.8 mph N/A   Mostly Cloudy
5:35 PM 30.4 °F 16.2 °F 4.1 °F 33% 30.21 in 10.0 mi NNW 26.5 mph 32.2 mph N/A   Overcast
5:55 PM 30.2 °F 17.4 °F 5.0 °F 34% 30.21 in 10.0 mi NNW 20.7 mph 31.1 mph N/A   Overcast
6:15 PM 29.7 °F 16.1 °F 3.6 °F 33% 30.22 in 10.0 mi NNW 23.0 mph 28.8 mph N/A   Overcast
6:35 PM 28.4 °F 15.1 °F 3.7 °F 35% 30.23 in 10.0 mi NNW 20.7 mph 26.5 mph N/A   Overcast
6:55 PM 27.7 °F 15.6 °F 4.5 °F 37% 30.22 in 10.0 mi NNW 16.1 mph - N/A   Mostly Cloudy
7:15 PM 27.0 °F 14.7 °F 5.5 °F 40% 30.23 in 10.0 mi NW 16.1 mph 20.7 mph N/A   Mostly Cloudy
7:35 PM 26.4 °F 15.5 °F 6.4 °F 43% 30.23 in 10.0 mi NNW 12.7 mph 18.4 mph N/A   Overcast
7:55 PM 25.2 °F 13.9 °F 7.5 °F 47% 30.23 in 10.0 mi NW 12.7 mph - N/A   Scattered Clouds
8:15 PM 25.5 °F 14.9 °F 8.6 °F 49% 30.23 in 10.0 mi NW 11.5 mph - N/A   Mostly Cloudy
8:35 PM 26.6 °F 15.2 °F 9.3 °F 48% 30.23 in 10.0 mi NNW 13.8 mph - N/A   Overcast
8:55 PM 26.6 °F 16.2 °F 8.8 °F 47% 30.23 in 10.0 mi NNW 11.5 mph - N/A   Overcast
9:15 PM 26.6 °F 14.7 °F 8.8 °F 47% 30.24 in 10.0 mi NNW 15.0 mph 23.0 mph N/A   Overcast
9:35 PM 26.6 °F 12.7 °F 8.6 °F 47% 30.24 in 10.0 mi NNW 20.7 mph 27.6 mph N/A   Overcast
9:55 PM 25.9 °F 12.5 °F 8.2 °F 47% 30.24 in 10.0 mi North 18.4 mph - N/A   Overcast
10:15 PM 25.5 °F 14.9 °F 8.4 °F 48% 30.24 in 10.0 mi North 11.5 mph 15.0 mph N/A   Overcast
10:35 PM 24.8 °F 13.4 °F 8.4 °F 50% 30.24 in 10.0 mi North 12.7 mph - N/A   Overcast
10:55 PM 23.9 °F 13.5 °F 8.6 °F 52% 30.24 in 10.0 mi NNW 10.4 mph - N/A   Mostly Cloudy
11:15 PM 23.2 °F 12.0 °F 9.3 °F 55% 30.24 in 10.0 mi NNW 11.5 mph - N/A   Overcast
11:35 PM 23.2 °F 12.0 °F 10.2 °F 58% 30.24 in 10.0 mi NNW 11.5 mph - N/A   Mostly Cloudy
11:55 PM 21.9 °F 11.7 °F 10.2 °F 61% 30.23 in 10.0 mi NNW 9.2 mph - N/A   Scattered Clouds